Torna al catalogo

STARLINK-30395

AttivoComunicazioniVLEO
NORAD 57812·PAYLOAD·🇺🇸 United States

Lanciato Sep 9, 2023 da Cape Canaveral Space Force Station

Loading…

Prossimi Passaggi (prossime 24 ore)

TLE

AggiornatoSource: CelesTrak SupGP

Epoca: Sep 14, 2026, 21:28 UTC

1 57812C 23138E   26257.89493056  .00038091  00000+0  13798-2 0  2573
2 57812  43.0029 245.6665 0001353 264.2791 132.8297 15.27556169    10

Traccia STARLINK-30395 in tempo reale con AllMySat

Download on the App Store